Date,TemperatureHighF,TemperatureAvgF,TemperatureLowF,DewpointHighF,DewpointAvgF,DewpointLowF,HumidityHigh,HumidityAvg,HumidityLow,PressureMaxIn,PressureMinIn,WindSpeedMaxMPH,WindSpeedAvgMPH,GustSpeedMaxMPH,PrecipitationSumIn
2013-6-1,97.9,77.3,61.0,71.2,64.8,59.2,95,70,38,30.06,29.94,10,1,10,0.00
2013-6-2,93.4,75.4,63.7,71.1,65.2,62.2,96,75,39,29.97,29.82,13,1,13,0.33
2013-6-3,85.8,68.7,58.3,70.3,61.6,38.2,96,80,45,29.91,29.82,8,1,8,1.03
2013-6-4,77.4,60.9,45.3,47.4,42.2,33.5,81,52,33,30.12,29.91,9,2,9,0.00
2013-6-5,81.3,63.4,47.5,56.2,46.4,43.2,91,59,31,30.21,30.12,8,1,8,0.00
2013-6-6,77.7,61.8,48.2,57.9,50.1,45.0,92,68,38,30.18,30.09,6,0,6,0.13
2013-6-7,60.1,56.4,52.9,58.9,55.0,51.3,98,95,91,30.12,29.79,13,1,13,3.48
2013-6-8,81.7,63.3,52.3,64.4,57.0,51.8,98,82,49,30.06,29.65,9,1,9,0.87
2013-6-9,86.0,67.1,52.9,60.1,54.6,51.7,97,69,36,30.21,30.06,13,1,13,0.00
2013-6-10,72.7,61.8,53.4,64.7,58.0,51.9,97,88,65,30.21,29.97,9,0,9,0.62
2013-6-11,81.1,62.5,57.0,67.4,60.0,56.0,97,92,59,29.97,29.62,10,1,10,1.70
2013-6-12,74.5,62.3,52.7,59.8,52.9,48.3,97,73,47,29.88,29.62,12,2,12,0.00
2013-6-13,61.9,54.4,48.9,58.6,52.8,47.7,98,94,85,29.85,29.65,8,0,8,1.54
2013-6-14,80.2,60.2,50.7,56.0,52.4,49.1,98,79,41,29.85,29.62,8,1,8,1.57
2013-6-15,84.6,66.0,52.9,62.3,49.3,41.2,96,61,26,30.00,29.85,8,1,8,0.00
2013-6-16,81.0,65.2,48.9,63.0,54.8,45.9,92,71,43,30.00,29.79,8,0,8,0.00
2013-6-17,91.6,71.0,57.9,67.8,59.4,52.7,96,72,33,29.97,29.88,10,1,10,0.54
2013-6-18,88.7,65.7,57.6,69.1,60.5,56.4,96,86,42,29.97,29.91,7,0,7,1.21
2013-6-19,82.4,64.8,51.8,59.4,51.3,42.8,98,67,30,30.18,29.94,10,1,10,0.04
2013-6-20,87.3,66.0,46.9,57.7,50.3,44.5,92,63,31,30.30,30.18,7,1,7,0.00
2013-6-21,89.4,68.6,52.7,66.2,58.4,51.2,95,73,41,30.30,30.24,9,0,9,0.00
2013-6-22,90.7,72.1,57.2,62.5,58.4,54.1,93,66,33,30.27,30.15,11,1,11,0.00
2013-6-23,94.6,75.8,59.4,71.8,64.4,56.3,91,71,41,30.21,30.09,10,1,10,0.00
2013-6-24,97.5,73.1,65.7,76.6,66.9,61.7,95,83,42,30.12,30.00,8,0,8,0.46
2013-6-25,95.4,76.8,62.8,75.5,67.0,61.6,96,76,40,30.03,29.85,10,1,10,0.04
2013-6-26,88.9,74.7,66.6,75.7,68.5,65.1,96,83,50,29.91,29.82,7,0,7,0.04
2013-6-27,88.0,71.9,66.6,74.2,68.2,65.1,96,89,61,29.91,29.76,6,0,6,0.00
2013-6-28,84.7,73.3,65.7,77.2,69.5,64.5,96,89,68,29.76,29.59,9,1,9,0.95
2013-6-29,89.2,74.2,67.1,73.2,68.3,65.4,96,83,52,29.79,29.59,12,1,12,0.00
2013-6-30,90.1,75.7,67.3,74.1,69.6,66.0,96,83,52,30.00,29.79,10,0,10,0.00